When you browse on this site, cookies collect data to enhance your experience and personalize the content and advertising you see.
Visit our Privacy Policy to learn more. By continuing to use the site, you agree to this use of cookies and data.
  • In Hungary
  • List of Countries
  • For 7 days
  • Water Temperature
  • Weather Map
  • News
  • Weather Widgets
  • user-avatar
    Login

    Hourly Weather Narok

    Today, 9 December, Monday

    Time Temperature Precipitation Wind Pressure Humidity
    00:00 +16°C° 0.2 mm 0 mps 604 mmHg 90%
    01:00 +16°C° 0.2 mm 0 mps 604 mmHg 90%
    02:00 +16°C° 0.2 mm 0 mps 604 mmHg 91%
    03:00 +16°C° 0.4 mm 0 mps 604 mmHg 91%
    04:00 +18°C° 0.4 mm 1 mps 604 mmHg 91%
    05:00 +18°C° 0.4 mm 1 mps 605 mmHg 91%
    06:00 +18°C° 0.4 mm 1 mps 605 mmHg 90%
    07:00 +18°C° 0.4 mm 1 mps 605 mmHg 89%
    08:00 +19°C° 0.4 mm 1 mps 606 mmHg 87%
    09:00 +18°C° 0.2 mm 2 mps 606 mmHg 85%
    10:00 +19°C° 0.2 mm 2 mps 605 mmHg 82%
    11:00 +20°C° 0.2 mm 2 mps 605 mmHg 79%
    12:00 +20°C° 0.3 mm 2 mps 605 mmHg 76%
    13:00 +21°C° 0.3 mm 2 mps 605 mmHg 73%
    14:00 +21°C° 0.3 mm 2 mps 604 mmHg 69%
    15:00 +21°C° 0.7 mm 2 mps 604 mmHg 74%
    16:00 +21°C° 0.7 mm 1 mps 604 mmHg 78%
    17:00 +20°C° 0.7 mm 1 mps 604 mmHg 82%
    18:00 +20°C° 0.7 mm 1 mps 604 mmHg 85%
    19:00 +19°C° 0.7 mm 1 mps 604 mmHg 87%
    20:00 +18°C° 0.7 mm 1 mps 605 mmHg 90%
    21:00 +16°C° 0.5 mm 0 mps 605 mmHg 89%
    22:00 +16°C° 0.5 mm 0 mps 605 mmHg 89%
    23:00 +16°C° 0.5 mm 0 mps 604 mmHg 89%

    Tomorrow, 10 December, Tuesday

    Time Temperature Precipitation Wind Pressure Humidity
    00:00 +16°C° 0.3 mm 0 mps 604 mmHg 89%
    01:00 +16°C° 0.3 mm 0 mps 604 mmHg 90%
    02:00 +16°C° 0.3 mm 0 mps 604 mmHg 90%
    03:00 +15°C° 0.1 mm 0 mps 604 mmHg 91%
    04:00 +15°C° 0.1 mm 0 mps 604 mmHg 92%
    05:00 +15°C° 0.1 mm 0 mps 604 mmHg 92%
    06:00 +18°C° 0.3 mm 1 mps 605 mmHg 88%
    07:00 +19°C° 0.3 mm 1 mps 606 mmHg 84%
    08:00 +19°C° 0.3 mm 2 mps 606 mmHg 80%
    09:00 +19°C° 0.7 mm 2 mps 606 mmHg 80%
    10:00 +20°C° 0.7 mm 3 mps 606 mmHg 79%
    11:00 +20°C° 0.7 mm 3 mps 605 mmHg 79%
    12:00 +21°C° 0.5 mm 3 mps 605 mmHg 75%
    13:00 +22°C° 0.5 mm 3 mps 605 mmHg 71%
    14:00 +22°C° 0.5 mm 3 mps 605 mmHg 67%
    15:00 +21°C° 0.5 mm 4 mps 604 mmHg 72%
    16:00 +20°C° 0.5 mm 4 mps 604 mmHg 77%
    17:00 +19°C° 0.5 mm 4 mps 603 mmHg 81%
    18:00 +18°C° 0.1 mm 3 mps 604 mmHg 84%
    19:00 +17°C° 0.1 mm 3 mps 604 mmHg 87%
    20:00 +16°C° 0.1 mm 2 mps 604 mmHg 90%
    21:00 +16°C° 0 mm 2 mps 604 mmHg 91%
    22:00 +15°C° 0 mm 2 mps 604 mmHg 92%
    23:00 +15°C° 0 mm 1 mps 604 mmHg 93%

    Day after tomorrow, 11 December, Wednesday

    Time Temperature Precipitation Wind Pressure Humidity
    00:00 +15°C° 0 mm 1 mps 604 mmHg 94%
    01:00 +14°C° 0 mm 1 mps 603 mmHg 94%
    02:00 +14°C° 0 mm 1 mps 603 mmHg 94%
    03:00 +14°C° 0 mm 1 mps 603 mmHg 94%
    04:00 +14°C° 0 mm 1 mps 603 mmHg 94%
    05:00 +13°C° 0 mm 1 mps 603 mmHg 94%
    06:00 +15°C° 0 mm 2 mps 604 mmHg 89%
    07:00 +17°C° 0 mm 2 mps 605 mmHg 83%
    08:00 +18°C° 0 mm 3 mps 606 mmHg 77%
    09:00 +20°C° 0 mm 4 mps 606 mmHg 70%
    10:00 +21°C° 0 mm 5 mps 606 mmHg 64%
    11:00 +23°C° 0 mm 5 mps 607 mmHg 57%
    12:00 +23°C° 0.3 mm 5 mps 606 mmHg 57%
    13:00 +23°C° 0.3 mm 5 mps 605 mmHg 58%
    14:00 +23°C° 0.3 mm 6 mps 605 mmHg 58%
    15:00 +22°C° 0.2 mm 5 mps 605 mmHg 62%
    16:00 +21°C° 0.2 mm 4 mps 604 mmHg 67%
    17:00 +20°C° 0.2 mm 4 mps 604 mmHg 71%
    18:00 +19°C° 0 mm 3 mps 604 mmHg 76%
    19:00 +17°C° 0 mm 2 mps 604 mmHg 80%
    20:00 +16°C° 0 mm 2 mps 604 mmHg 85%
    21:00 +16°C° 0 mm 1 mps 604 mmHg 85%
    22:00 +15°C° 0 mm 1 mps 604 mmHg 86%
    23:00 +15°C° 0 mm 1 mps 604 mmHg 87%

    12 December, Thursday

    Time Temperature Precipitation Wind Pressure Humidity
    00:00 +15°C° 0 mm 1 mps 604 mmHg 89%
    01:00 +14°C° 0 mm 1 mps 603 mmHg 90%
    02:00 +14°C° 0 mm 1 mps 603 mmHg 92%
    03:00 +13°C° 0 mm 1 mps 603 mmHg 92%
    04:00 +13°C° 0 mm 1 mps 603 mmHg 92%
    05:00 +13°C° 0 mm 1 mps 603 mmHg 91%
    06:00 +15°C° 0 mm 1 mps 604 mmHg 83%
    07:00 +18°C° 0 mm 1 mps 606 mmHg 75%
    08:00 +21°C° 0 mm 1 mps 607 mmHg 67%
    09:00 +21°C° 0 mm 2 mps 607 mmHg 60%
    10:00 +23°C° 0 mm 2 mps 607 mmHg 54%
    11:00 +25°C° 0 mm 3 mps 607 mmHg 47%
    12:00 +25°C° 0 mm 3 mps 606 mmHg 47%
    13:00 +25°C° 0 mm 4 mps 606 mmHg 47%
    14:00 +25°C° 0 mm 4 mps 605 mmHg 47%
    15:00 +23°C° 0.2 mm 4 mps 605 mmHg 53%
    16:00 +22°C° 0.2 mm 3 mps 604 mmHg 60%
    17:00 +21°C° 0.2 mm 2 mps 604 mmHg 66%
    18:00 +19°C° 0.1 mm 2 mps 604 mmHg 71%
    19:00 +18°C° 0.1 mm 2 mps 604 mmHg 76%
    20:00 +18°C° 0.1 mm 1 mps 604 mmHg 80%
    21:00 +18°C° 0 mm 1 mps 604 mmHg 81%
    22:00 +16°C° 0 mm 1 mps 604 mmHg 83%
    23:00 +16°C° 0 mm 1 mps 604 mmHg 84%

    13 December, Friday

    Time Temperature Precipitation Wind Pressure Humidity
    00:00 +16°C° 0 mm 1 mps 604 mmHg 84%
    01:00 +16°C° 0 mm 1 mps 604 mmHg 84%
    02:00 +15°C° 0 mm 0 mps 604 mmHg 85%
    03:00 +15°C° 0 mm 1 mps 604 mmHg 86%
    04:00 +15°C° 0 mm 1 mps 604 mmHg 87%
    05:00 +14°C° 0 mm 1 mps 604 mmHg 88%
    06:00 +16°C° 0 mm 1 mps 605 mmHg 82%
    07:00 +19°C° 0 mm 1 mps 606 mmHg 75%
    08:00 +21°C° 0 mm 1 mps 607 mmHg 68%
    09:00 +23°C° 0.5 mm 1 mps 607 mmHg 64%
    10:00 +24°C° 0.5 mm 1 mps 607 mmHg 59%
    11:00 +26°C° 0.5 mm 1 mps 607 mmHg 54%
    12:00 +25°C° 1 mm 2 mps 606 mmHg 56%
    13:00 +25°C° 1 mm 2 mps 606 mmHg 57%
    14:00 +24°C° 1 mm 3 mps 605 mmHg 59%
    15:00 +22°C° 1.1 mm 3 mps 605 mmHg 64%
    16:00 +21°C° 1.1 mm 2 mps 604 mmHg 68%
    17:00 +20°C° 1.1 mm 2 mps 604 mmHg 73%
    18:00 +19°C° 0.5 mm 2 mps 604 mmHg 76%
    19:00 +18°C° 0.5 mm 2 mps 605 mmHg 79%
    20:00 +18°C° 0.5 mm 1 mps 605 mmHg 82%
    21:00 +18°C° 0 mm 1 mps 605 mmHg 84%
    22:00 +18°C° 0 mm 1 mps 605 mmHg 85%
    23:00 +16°C° 0 mm 1 mps 605 mmHg 86%

    14 December, Saturday

    Time Temperature Precipitation Wind Pressure Humidity
    00:00 +16°C° 0 mm 1 mps 604 mmHg 87%
    01:00 +15°C° 0 mm 1 mps 604 mmHg 87%
    02:00 +15°C° 0 mm 1 mps 604 mmHg 88%
    03:00 +15°C° 0 mm 1 mps 604 mmHg 89%
    04:00 +15°C° 0 mm 1 mps 604 mmHg 89%
    05:00 +14°C° 0 mm 1 mps 604 mmHg 90%
    06:00 +15°C° 0 mm 0 mps 605 mmHg 84%
    07:00 +17°C° 0 mm 0 mps 606 mmHg 78%
    08:00 +19°C° 0 mm 0 mps 607 mmHg 72%
    09:00 +22°C° 0 mm 1 mps 607 mmHg 63%
    10:00 +24°C° 0 mm 2 mps 607 mmHg 55%
    11:00 +25°C° 0 mm 3 mps 607 mmHg 47%
    12:00 +25°C° 0 mm 3 mps 607 mmHg 46%
    13:00 +25°C° 0 mm 3 mps 606 mmHg 45%
    14:00 +26°C° 0 mm 4 mps 606 mmHg 44%
    15:00 +25°C° 0.1 mm 3 mps 605 mmHg 50%
    16:00 +22°C° 0.1 mm 3 mps 605 mmHg 56%
    17:00 +21°C° 0.1 mm 2 mps 605 mmHg 61%
    18:00 +20°C° 0.1 mm 2 mps 605 mmHg 68%
    19:00 +18°C° 0.1 mm 2 mps 605 mmHg 74%
    20:00 +18°C° 0.1 mm 1 mps 605 mmHg 80%
    21:00 +16°C° 0 mm 1 mps 605 mmHg 82%
    22:00 +16°C° 0 mm 1 mps 605 mmHg 84%
    23:00 +15°C° 0 mm 1 mps 605 mmHg 85%
    Show more